[[{"header":{"parameterUnit":"m.s-1","parameterCategory":1,"la1":30.2991,"la2":30.254,"lo1":-89.0895,"lo2":-89.0444,"dy":0.0017,"dx":0.0017,"nx":28,"ny":28,"refTime":"2025-03-19T09:00:00:Z","depth":0,"parameterNumber":2,"parameterNumberName":"U-component_of_WINDS"},"data":[0,0,0,0,0,0,0,0,0,0,0,0,0,0,0,0,0,0,0,0,0,0,0,0,0,0,0,0,0,0,0,0,0,0,0,0,0,0,0,0,0,0,0,0,0,0,0,0,0,0,0,0,0,0,0,0,0,0,-0.2075,-0.2074,0,-0.2001,-0.2,-0.2,-0.1969,-0.197,-0.197,-0.197,-0.1896,-0.1894,-0.1891,0,0,0,0,0,0,0,0,0,0,0,0,0,-0.2193,-0.2191,-0.2075,-0.2074,-0.2073,-0.2001,-0.2,-0.1999,-0.1969,-0.197,-0.197,-0.197,-0.1896,-0.1894,-0.1891,0,0,0,0,0,0,0,0,0,0,0,0,0,-0.2133,-0.219,-0.2075,-0.205,-0.2047,-0.2002,-0.2,-0.1999,-0.1969,-0.197,-0.197,-0.197,-0.1897,-0.1894,-0.1891,-0.1866,0,0,-0.1881,-0.188,0,0,0,0,0,0,0,0,-0.2136,-0.2128,-0.2054,-0.2051,-0.2048,-0.1995,-0.2014,-0.1955,-0.1969,-0.1999,-0.197,-0.197,-0.1929,-0.1923,-0.1908,-0.1863,-0.186,-0.1881,-0.1879,-0.1878,-0.1877,0,0,0,0,0,0,0,-0.214,-0.2131,-0.2046,-0.2053,-0.2049,-0.2043,-0.2034,-0.2003,-0.1963,-0.1996,-0.1994,-0.1985,-0.1927,-0.1912,-0.1906,-0.1859,-0.1881,-0.1878,-0.1876,-0.1875,-0.179,-0.179,0,0,0,0,0,0,-0.2148,-0.2135,-0.2048,-0.2044,-0.2093,-0.204,-0.2031,-0.2012,-0.1963,-0.1956,-0.1985,-0.1984,-0.1917,-0.191,-0.1904,-0.1872,-0.1878,-0.1875,-0.1873,-0.179,-0.179,-0.1789,0,0,0,0,0,0,-0.2151,-0.2141,-0.2051,-0.2089,-0.2077,-0.2038,-0.2016,-0.201,-0.1995,-0.1955,-0.1948,-0.1977,-0.1917,-0.1908,-0.1876,-0.1869,-0.1873,-0.187,-0.1791,-0.179,-0.179,-0.1808,0,0,0,0,0,0,-0.2154,-0.2142,-0.2132,-0.2089,-0.2075,-0.2024,-0.2016,-0.2008,-0.1989,-0.1987,-0.1945,-0.1939,-0.1916,-0.1881,-0.1873,-0.1865,-0.1868,-0.1791,-0.179,-0.179,-0.1808,-0.1809,-0.1809,0,0,0,0,0,-0.2159,-0.214,-0.2131,-0.2121,-0.2061,-0.2024,-0.2016,-0.199,-0.1989,-0.1978,-0.1953,-0.194,-0.1871,-0.1878,-0.1868,-0.1859,-0.1791,-0.1791,-0.179,-0.1808,-0.1809,-0.1809,0,0,0,0,0,0,-0.2184,-0.2134,-0.2124,-0.2091,-0.2062,-0.2019,-0.2005,-0.1991,-0.1963,-0.1962,-0.1932,-0.1923,-0.1893,-0.1873,-0.1881,-0.1833,-0.183,-0.1828,-0.1847,-0.1848,-0.1848,-0.1853,-0.1865,0,0,0,0,0,-0.2186,-0.2159,-0.2117,-0.2092,-0.2078,-0.2044,-0.2027,-0.201,-0.1979,-0.1966,-0.1939,-0.191,-0.1881,-0.1863,-0.1835,-0.1805,-0.1796,-0.1795,-0.1795,-0.1795,-0.1793,-0.1777,-0.1776,-0.1787,-0.1787,-0.1787,0,0,-0.2189,-0.2159,-0.2144,-0.2096,-0.2072,-0.2046,-0.2034,-0.2007,-0.1987,-0.1962,-0.193,-0.1909,-0.1874,-0.1843,-0.1828,-0.1826,-0.1788,-0.1794,-0.1795,-0.1793,-0.1776,-0.1775,-0.1774,-0.1786,-0.1786,-0.1787,0,0,-0.2182,-0.2156,-0.2132,-0.2108,-0.2071,-0.2048,-0.2043,-0.2002,-0.1987,-0.1954,-0.1935,-0.1911,-0.1863,-0.184,-0.1821,-0.1806,-0.1793,-0.1797,-0.1799,-0.1783,-0.1782,-0.1781,-0.1776,-0.1774,-0.1796,-0.1796,-0.1796,0,-0.2191,-0.2149,-0.2122,-0.2095,-0.2075,-0.2051,-0.2028,-0.2006,-0.1962,-0.1949,-0.1946,-0.1886,-0.1861,-0.1824,-0.182,-0.1806,-0.1799,-0.1802,-0.1784,-0.1783,-0.1782,-0.1777,-0.1775,-0.1796,-0.1796,-0.1796,-0.1796,0,-0.2162,-0.2134,-0.212,-0.2077,-0.2056,-0.2031,-0.2,-0.1982,-0.1966,-0.1945,-0.1912,-0.1881,-0.1847,-0.1837,-0.1821,-0.1798,-0.1797,-0.179,-0.1787,-0.1782,-0.1777,-0.1774,-0.1798,-0.1797,-0.1797,-0.1797,0,0,-0.2168,-0.2111,-0.2106,-0.2087,-0.2044,-0.2022,-0.1997,-0.1963,-0.1948,-0.1918,-0.1896,-0.1857,-0.185,-0.1829,-0.1811,-0.1797,-0.1787,-0.1792,-0.179,-0.1792,-0.176,-0.1765,-0.1763,-0.1778,-0.1778,-0.1777,-0.1762,0,-0.2155,-0.2108,-0.2082,-0.2045,-0.2019,-0.1997,-0.1974,-0.1947,-0.1926,-0.1901,-0.1878,-0.1851,-0.1843,-0.1831,-0.1816,-0.1791,-0.178,-0.1792,-0.1758,-0.1757,-0.1767,-0.176,-0.1766,-0.1753,-0.176,-0.176,-0.1759,0,-0.2134,-0.2104,-0.2065,-0.2025,-0.2014,-0.1994,-0.1961,-0.1937,-0.1905,-0.1891,-0.1869,-0.1851,-0.1824,-0.1822,-0.1785,-0.1794,-0.1778,-0.1764,-0.1763,-0.1759,-0.1758,-0.1756,-0.1749,-0.1747,-0.1756,-0.1756,-0.1756,0,-0.2142,-0.2093,-0.2063,-0.2047,-0.2,-0.1987,-0.1967,-0.1936,-0.1917,-0.1888,-0.1876,-0.1844,-0.1827,-0.1804,-0.1779,-0.178,-0.1744,-0.174,-0.1732,-0.1732,-0.1725,-0.1726,-0.1715,-0.1715,-0.1715,-0.1715,-0.1715,0,-0.213,-0.2107,-0.2066,-0.2047,-0.2021,-0.1993,-0.1967,-0.1946,-0.1918,-0.1896,-0.1874,-0.1854,-0.1822,-0.1798,-0.1778,-0.175,-0.1742,-0.1731,-0.1726,-0.1732,-0.1734,-0.1722,-0.1722,-0.1715,-0.1715,-0.1715,-0.1715,0,-0.2135,-0.2107,-0.2073,-0.2031,-0.2021,-0.2003,-0.1968,-0.195,-0.1928,-0.19,-0.1892,-0.1858,-0.1828,-0.1801,-0.1761,-0.1748,-0.172,-0.1714,-0.1731,-0.1728,-0.1721,-0.1722,-0.1702,-0.1698,-0.1701,-0.1701,-0.1701,0,-0.2129,-0.2111,-0.2068,-0.2051,-0.2031,-0.2005,-0.1985,-0.1957,-0.1937,-0.19,-0.1886,-0.1855,-0.1829,-0.1783,-0.1755,-0.1725,-0.1717,-0.1713,-0.1713,-0.172,-0.1717,-0.1719,-0.1717,-0.1713,-0.1713,-0.1713,-0.1713,0,-0.2122,-0.2109,-0.2081,-0.2049,-0.2026,-0.2,-0.1972,-0.196,-0.1927,-0.1906,-0.1875,-0.1855,-0.1815,-0.1784,-0.1751,-0.1731,-0.1717,-0.1714,-0.171,-0.1717,-0.1727,-0.1722,-0.1732,-0.1714,-0.1714,-0.1714,-0.1714,-0.1714,-0.2122,-0.2104,-0.2071,-0.2041,-0.2018,-0.1993,-0.1974,-0.1949,-0.1923,-0.1888,-0.1873,-0.1842,-0.1811,-0.1765,-0.1745,-0.1721,-0.1718,-0.1713,-0.1711,-0.1711,-0.1712,-0.1731,-0.1715,-0.1715,-0.1715,-0.1715,-0.1715,0,-0.2113,-0.2091,-0.2064,-0.2026,-0.2003,-0.1991,-0.196,-0.1942,-0.1914,-0.1887,-0.1861,-0.1826,-0.1796,-0.1766,-0.1735,-0.1722,-0.1714,-0.1714,-0.1715,-0.1711,-0.1717,-0.1723,-0.1721,-0.1721,-0.1721,-0.1721,-0.1721,-0.1721,-0.2106,-0.2076,-0.2059,-0.2018,-0.1996,-0.1965,-0.1948,-0.1925,-0.1903,-0.1865,-0.184,-0.182,-0.1792,-0.1758,-0.1731,-0.1723,-0.1713,-0.1715,-0.1705,-0.1711,-0.171,-0.171,-0.1716,-0.1713,-0.1713,-0.1701,-0.1701,-0.1701]},{"header":{"parameterUnit":"m.s-1","parameterCategory":1,"la1":30.2991,"la2":30.254,"lo1":-89.0895,"lo2":-89.0444,"dy":0.0017,"dx":0.0017,"nx":28,"ny":28,"refTime":"2025-03-19T09:00:00:Z","depth":0,"parameterNumber":3,"parameterNumberName":"V-component_of_WINDS"},"data":[0,0,0,0,0,0,0,0,0,0,0,0,0,0,0,0,0,0,0,0,0,0,0,0,0,0,0,0,0,0,0,0,0,0,0,0,0,0,0,0,0,0,0,0,0,0,0,0,0,0,0,0,0,0,0,0,0,0,5.3935,5.3937,0,5.4135,5.4137,5.414,5.415,5.4148,5.4145,5.4143,5.4343,5.4351,5.4358,0,0,0,0,0,0,0,0,0,0,0,0,0,5.3555,5.3562,5.3935,5.3937,5.394,5.4135,5.4137,5.414,5.415,5.4148,5.4145,5.4142,5.4341,5.435,5.4359,0,0,0,0,0,0,0,0,0,0,0,0,0,5.3734,5.3564,5.3934,5.3968,5.3973,5.4134,5.4138,5.4141,5.4151,5.4148,5.4144,5.4141,5.4338,5.4349,5.436,5.4499,0,0,5.4394,5.4399,0,0,0,0,0,0,0,0,5.3724,5.3748,5.3961,5.3966,5.3972,5.4114,5.4077,5.4261,5.4152,5.4083,5.4143,5.4139,5.427,5.4286,5.4331,5.4508,5.4517,5.4395,5.4402,5.4407,5.441,0,0,0,0,0,0,0,5.3711,5.3739,5.4014,5.3964,5.3971,5.3972,5.3993,5.4112,5.4193,5.4089,5.409,5.4114,5.4272,5.432,5.4336,5.4519,5.4395,5.4405,5.4412,5.4416,5.4817,5.4821,0,0,0,0,0,0,5.3693,5.3729,5.4007,5.402,5.3837,5.3981,5.4006,5.4072,5.4192,5.4207,5.4117,5.4114,5.4303,5.4323,5.4343,5.4512,5.4407,5.4417,5.4424,5.4813,5.4818,5.4822,0,0,0,0,0,0,5.3685,5.3718,5.3999,5.3875,5.3911,5.3992,5.4066,5.4078,5.4126,5.4213,5.4227,5.4152,5.4301,5.4327,5.446,5.4519,5.4422,5.4433,5.4809,5.4815,5.482,5.4851,0,0,0,0,0,0,5.3674,5.3715,5.377,5.3876,5.3917,5.4115,5.407,5.4084,5.4146,5.4144,5.425,5.4264,5.43,5.4443,5.4471,5.4532,5.4441,5.4804,5.4811,5.4818,5.4845,5.4857,5.4867,0,0,0,0,0,5.3661,5.377,5.3773,5.3806,5.3988,5.4118,5.4141,5.4183,5.4151,5.4206,5.4261,5.426,5.4508,5.4456,5.4488,5.4554,5.48,5.4809,5.4818,5.484,5.4855,5.4867,0,0,0,0,0,0,5.3668,5.3785,5.3789,5.3937,5.4017,5.412,5.419,5.4197,5.4288,5.4282,5.4327,5.4351,5.4482,5.4531,5.4472,5.4693,5.465,5.4666,5.4656,5.4671,5.4682,5.4667,5.4451,0,0,0,0,0,5.3687,5.3784,5.388,5.4001,5.4042,5.4109,5.4167,5.4192,5.4277,5.431,5.4376,5.4457,5.4552,5.4614,5.4708,5.4852,5.4874,5.4913,5.4924,5.4933,5.4945,5.5023,5.5041,5.4851,5.4851,5.4851,0,0,5.3727,5.3802,5.3861,5.4005,5.407,5.4168,5.4138,5.4243,5.4315,5.4326,5.4455,5.4505,5.4598,5.4737,5.4801,5.4782,5.5002,5.4944,5.495,5.4958,5.5034,5.5052,5.5068,5.4857,5.4856,5.4855,0,0,5.3849,5.3917,5.4024,5.4091,5.4191,5.4234,5.426,5.4361,5.4395,5.4526,5.4535,5.4621,5.4786,5.4851,5.4906,5.5051,5.5052,5.508,5.5138,5.5214,5.5228,5.5242,5.5292,5.5309,5.5092,5.5092,5.5092,0,5.3885,5.4035,5.4078,5.4183,5.4245,5.426,5.4368,5.4429,5.4554,5.4595,5.4572,5.4778,5.4842,5.4995,5.503,5.5075,5.5103,5.5068,5.5223,5.5237,5.525,5.5298,5.5317,5.5095,5.5095,5.5094,5.5094,0,5.4074,5.4177,5.4251,5.4372,5.4442,5.4548,5.4605,5.4671,5.4689,5.4734,5.4865,5.4942,5.505,5.5088,5.5107,5.5244,5.5228,5.5214,5.5172,5.527,5.5316,5.5335,5.5098,5.5098,5.5097,5.5096,0,0,5.4207,5.435,5.4376,5.443,5.4541,5.462,5.4725,5.4832,5.4887,5.4971,5.5059,5.5197,5.5184,5.5246,5.5272,5.5338,5.5446,5.5316,5.5318,5.5336,5.5598,5.5608,5.5628,5.5448,5.5452,5.5455,5.559,0,5.434,5.453,5.4571,5.4733,5.4828,5.4843,5.4934,5.501,5.5055,5.514,5.5188,5.5285,5.5262,5.5299,5.5365,5.5419,5.5499,5.541,5.5528,5.5531,5.5503,5.5653,5.5664,5.5788,5.5608,5.5611,5.5614,0,5.4522,5.4612,5.4783,5.488,5.4921,5.5002,5.5102,5.5185,5.527,5.5298,5.5367,5.5385,5.5492,5.5445,5.5592,5.5531,5.5581,5.5614,5.562,5.5632,5.5578,5.5667,5.5829,5.5847,5.5643,5.564,5.5638,0,5.4599,5.4763,5.4887,5.4933,5.5049,5.5105,5.5156,5.5239,5.5299,5.5386,5.5426,5.5523,5.5577,5.5651,5.5694,5.5656,5.5837,5.5794,5.5861,5.586,5.5898,5.5894,5.6068,5.5932,5.5932,5.5932,5.5931,0,5.4744,5.4848,5.4923,5.4999,5.5115,5.516,5.5274,5.5323,5.5397,5.5481,5.5499,5.5577,5.563,5.5715,5.5749,5.5865,5.5889,5.5912,5.592,5.591,5.5907,5.5943,5.5935,5.5937,5.5936,5.5935,5.5934,0,5.485,5.4905,5.5041,5.5139,5.5166,5.5247,5.533,5.5403,5.5448,5.5554,5.5581,5.565,5.5751,5.5802,5.5927,5.595,5.6079,5.6082,5.6051,5.6054,5.6117,5.611,5.6319,5.6348,5.6194,5.6195,5.6197,0,5.4938,5.5019,5.5125,5.5184,5.5236,5.5329,5.5392,5.5438,5.5502,5.5605,5.5665,5.5767,5.5851,5.601,5.607,5.6165,5.617,5.6237,5.6184,5.6171,5.6169,5.6163,5.617,5.6246,5.6247,5.6248,5.6249,0,5.5088,5.5111,5.5201,5.53,5.5374,5.5454,5.5532,5.5578,5.5637,5.5707,5.5811,5.5876,5.6004,5.6104,5.6203,5.6253,5.626,5.6265,5.6286,5.6276,5.6254,5.6265,5.6075,5.626,5.6259,5.6258,5.6258,5.6257,5.5187,5.5258,5.5344,5.5443,5.5507,5.558,5.5653,5.5706,5.5794,5.5903,5.5924,5.6033,5.6115,5.6249,5.6302,5.6386,5.6371,5.6401,5.6409,5.6415,5.6417,5.6241,5.6404,5.6404,5.6404,5.6404,5.6404,0,5.5336,5.5392,5.5482,5.5592,5.5669,5.5671,5.5757,5.5821,5.5917,5.5993,5.6076,5.6193,5.629,5.6357,5.6455,5.6509,5.6515,5.6533,5.6529,5.654,5.6426,5.6398,5.6527,5.6527,5.6527,5.6527,5.6527,5.6527,5.5423,5.5543,5.5576,5.5727,5.5782,5.589,5.5939,5.6005,5.6066,5.6197,5.6278,5.6321,5.6393,5.6496,5.6584,5.6601,5.6635,5.6653,5.667,5.6561,5.6548,5.6536,5.651,5.6661,5.6661,5.6777,5.6778,5.6779]}]]